Weather in Kumak

Russia / Orenburg Oblast     51°08′37″N   60°07′39″E
temp.,
°C
wind,
m/s
gust,
m/s
humid.,
%
clouds,
%
prec.,
mm/h
press.,
hPa
HPBL,
m
16 may, sun
sun1623:00+22wnw33300 0.0 102318
02:00+20nnw33332 0.0 102320
05:00+18s22370 0.0 102313
08:00+23w33325 0.0 1023181
11:00+27w12265 0.0 1023994
14:00+30w331814 0.0 10223495
17:00+30w33185 0.0 10223370
20:00+26wnw33281 0.0 102026
17 may, mon
mon1723:00+23n222915 0.0 102111
02:00+20nnw33407 0.0 102118
05:00+19ene124763 0.0 102111
08:00+24nw11345 0.0 1022133
11:00+29n322317 0.0 10212095
14:00+31nw211881 0.0 10203528
17:00+30w5420100 0.0 10191794
20:00+22se6845100 0.6 1019122
18 may, tue
tue1823:00+20w6115579 0.9 1019235
02:00+19nnw455099 0.0 101962
05:00+17ne226080 0.0 101811
08:00+23n234199 0.0 1018193
11:00+28n342788 0.0 10161670
14:00+30nnw322177 0.0 10153284
17:00+30n332153 0.1 10132310
20:00+22se34477 0.5 101587
19 may, wed
wed1923:00+20ne4648100 0.6 101578
02:00+19ne485050 0.0 1015131
05:00+16ne916702 0.1 1016476
08:00+16ne1013640 0.0 1018612
11:00+20ne1010480 0.0 10191217
14:00+22ene910360 0.0 10191602
17:00+22ene89330 0.0 10191745
20:00+19ene711393 0.0 1019484
20 may, thu
thu2023:00+15e513470 0.0 1021340
02:00+13ene512520 0.0 1022262
05:00+11ene48590 0.0 1023143
08:00+15e58490 0.0 1024530
11:00+20e67335 0.0 10241329
14:00+22ese66260 0.0 10231781
17:00+23ese66240 0.0 10221855
20:00+19ese47350 0.0 1022137